Overview Statistics Trail Chart Weather Telemetry Raw packets
 

This is the latest recevied weather packets stored in our database for station/object SV7GBF-2. If no packets are shown the sender has not sent any weather packets the latest 10 day(s).

<< 18 19 20 21 22 23 24 >>
Time Temp. Humidity Pressure Rain* Wind** Luminosity Snow
1788302645 23.89° C 50% 1016 hPa - - - -
1788301444 24.44° C 52% 1016 hPa - - - -
1788300844 24.44° C 52% 1016 hPa - - - -
1788300243 24.44° C 49% 1016 hPa - - - -
1788299644 25° C 50% 1016 hPa - - - -
1788299044 24.44° C 49% 1016 hPa - - - -
1788298444 24.44° C 48% 1016 hPa - - - -
1788297844 25° C 50% 1016 hPa - - - -
1788297244 25° C 49% 1016 hPa - - - -
1788296665 25° C 45% 1016 hPa - - - -
1788296044 25.56° C 45% 1016 hPa - - - -
1788295445 25.56° C 45% 1016 hPa - - - -
1788294843 25.56° C 45% 1016 hPa - - - -
1788294244 25.56° C 45% 1016 hPa - - - -
1788293644 26.11° C 43% 1016 hPa - - - -
1788293044 26.67° C 42% 1016 hPa - - - -
1788292444 26.67° C 43% 1016 hPa - - - -
1788291844 26.67° C 43% 1016 hPa - - - -
1788291243 26.67° C 42% 1016 hPa - - - -
1788290644 26.67° C 42% 1016 hPa - - - -
1788290044 26.67° C 43% 1016 hPa - - - -
1788289443 26.67° C 42% 1016 hPa - - - -
1788288844 27.22° C 42% 1016 hPa - - - -
1788288244 27.22° C 43% 1016 hPa - - - -
1788287643 27.22° C 44% 1016 hPa - - - -

* Rain since midnight (hover to see other rain measurements)
** Current wind speed in m/s (hover to see current wind gust speed)